Preview of NWS' New Version of Forecast
This preview is not operational and should not be used for support decisions.

Regional Weather Roundup (RWR)

Issued by National Weather Service (NWS)

                            
000
ASUS43 KMKX 212010
RWRWI 

WISCONSIN REGIONAL WEATHER ROUNDUP
NATIONAL WEATHER SERVICE MILWAUKEE/SULLIVAN WI
300 PM CDT SUN APR 21 2019

NOTE: "FAIR" INDICATES FEW OR NO CLOUDS BELOW 12,000 FEET WITH NO
SIGNIFICANT WEATHER AND/OR OBSTRUCTIONS TO VISIBILITY.

WIZ001-002-006>008-014>016-023>028-212100-
NORTHWEST WISCONSIN
  
CITY           SKY/WX    TMP DP  RH WIND       PRES   REMARKS
SUPERIOR ARPT  CLOUDY    40  39  97 NE17G23   30.03R WCI  31          
ASHLAND        CLOUDY    40  39  97 N10       30.04R WCI  33          
HAYWARD        PTSUNNY   56  44  64 NE14G20   29.95R                  
SIREN          FAIR      61  43  51 NE14      29.90S                  
CUMBERLAND     PTSUNNY   59  41  51 NE14      29.87S                  
RICE LAKE      FAIR      68  40  36 E14       29.87S                  
CHETEK         FAIR      68  41  37 NE7       29.85F                  
LADYSMITH      PTSUNNY   65  42  42 NE10      29.89F                  
EAU CLAIRE     FAIR      78  45  30 S10       29.80F                  
MENOMONIE      FAIR      74  40  29 E7        29.81F                  
NEW RICHMOND   FAIR      73  40  31 NE13G18   29.82S                  
OSCEOLA        FAIR      68  43  40 NE14G22   29.86R                  
$$
 
WIZ003>005-009-010-017-018-212100-
NORTH CENTRAL WISCONSIN
  
CITY           SKY/WX    TMP DP  RH WIND       PRES   REMARKS
MANITOWISH WTR DRIZZLE   48  42  81 E7        29.95F                  
ARBOR VITAE    LGT RAIN  53  40  61 E8G16     29.94S                  
WOODRUFF       LGT RAIN  53  40  61 E8G16     29.94S                  
RHINELANDER    PTSUNNY   63  39  41 NE10      29.93F                  
EAGLE RIVER    PTSUNNY   55  33  43 NE12G17   29.95F                  
LAND O LAKES   RAIN      53  35  51 NE8       29.99S                  
PHILLIPS       PTSUNNY   57  42  56 E10G18    29.91S                  
TOMAHAWK       CLOUDY    66  36  32 NE10      29.92R                  
MEDFORD        PTSUNNY   69  43  38 E8        29.87S                  
MERRILL        FAIR      70  43  37 E8        29.88F                  
$$
 
WIZ029-030-035-036-043>047-212100-
CENTRAL WISCONSIN
  
CITY           SKY/WX    TMP DP  RH WIND       PRES   REMARKS
WAUSAU         NOT AVBL                                               
MOSINEE        PTSUNNY   73  43  33 SW3       29.87F                  
MARSHFIELD     FAIR      77  48  35 SE9       29.83F                  
STEVENS POINT  FAIR      76  41  28 S15       29.87R                  
WAUPACA        FAIR      79  39  23 S12G17    29.86F                  
WAUTOMA        FAIR      79  43  27 S17G23    29.86F                  
WISC RAPIDS    FAIR      79  42  26 S12       29.86R                  
CAMP DOUGLAS   PTSUNNY   79  45  29 S14G22    29.84S                  
$$
 
WIZ011>013-019>022-031-037>040-048>050-212100-
NORTHEAST WISCONSIN
  
CITY           SKY/WX    TMP DP  RH WIND       PRES   REMARKS
ANTIGO         FAIR      67  41  38 SE8       29.92R                  
SHAWANO        FAIR      71  46  40 NE7       29.89S                  
OCONTO         FAIR      58  35  42 E8        29.92F                  
STURGEON BAY   FAIR      62  39  42 E8        29.95F                  
GREEN BAY      FAIR      71  46  40 NE10      29.90F                  
MANITOWOC      FAIR      57  36  45 S14       29.94F                  
APPLETON       PTSUNNY   73  36  25 SE14      29.88F                  
CLINTONVILLE   FAIR      75  42  30 SE10      29.88S                  
OSHKOSH        FAIR      78  45  30 S16G26    29.87F                  
$$
 
WIZ032>034-041-042-053>061-212100-
SOUTHWEST WISCONSIN
  
CITY           SKY/WX    TMP DP  RH WIND       PRES   REMARKS
LA CROSSE      FAIR      79  47  32 S14       29.79F                  
SPARTA         FAIR      79  46  30 S10       29.84S                  
VIROQUA        FAIR      81  49  32 S21       29.84F HX  80           
BOSCOBEL       FAIR      84  45  25 S13G26    29.84F HX  82           
PRAIRIE DU CHI FAIR      82  41  23 SE14G24   29.82F HX  80           
PLATTEVILLE    FAIR      78  46  31 S18       29.88F                  
$$

WIZ056-057-062-063-064-067-068-212100-
SOUTH CENTRAL WISCONSIN
  
CITY           SKY/WX    TMP DP  RH WIND       PRES   REMARKS
REEDSBURG      FAIR      79  46  30 S17G25    29.87R                  
BARABOO/DELLS  FAIR      78  40  25 S17       29.87S                  
LONE ROCK      FAIR      81  46  29 S13G22    29.86F HX  80           
MINERAL POINT  FAIR      81  43  26 S16G23    29.88F                  
MADISON        PTSUNNY   78  39  24 S16G30    29.89F                  
MIDDLETON      FAIR      81  38  21 S16G24    29.89F                  
WATERTOWN      FAIR      79  42  27 S16       29.91S                  
MONROE         FAIR      78  38  24 MISG      29.91F                  
JANESVILLE     MOSUNNY   81  37  21 S14G20    29.93F                  
$$
 
WIZ051-052-058>065-066-070>072-212100-
SOUTHEAST WISCONSIN
  
CITY           SKY/WX    TMP DP  RH WIND       PRES   REMARKS
MILWAUKEE      FAIR      69  37  30 SE14      29.96F                  
WAUKESHA       SUNNY     75  37  25 S10G20    29.95F                  
MILWAUKEE/TIMM SUNNY     75  32  20 SE12G18   29.95F                  
RACINE         FAIR      64  31  28 S14G23    29.99F                  
KENOSHA        FAIR      75  39  27 SE15      29.97F                  
FOND DU LAC    FAIR      79  44  28 S18G26    29.89F                  
SHEBOYGAN      FAIR      65  40  39 SE10G18   29.93F                  
WEST BEND      FAIR      77  37  24 SW15      29.92F                  
JUNEAU         FAIR      76  41  28 S15G22    29.92F                  
$$

LSZ147-162-212100-
LAKE SUPERIOR
  
STATION/POSITION TIME  TEMP    WIND        PRES    WAVE
                       AIR SEA DIR/SP/G            HT/PER
                 (UTC) (F)     (DEG/KT/KT) (MB)    (FT/S)
$$
 
LMZ867-665-643>646-212100-
LAKE MICHIGAN
  
STATION/POSITION TIME  TEMP    WIND        PRES    WAVE
                       AIR SEA DIR/SP/G            HT/PER
                 (UTC) (F)     (DEG/KT/KT) (MB)    (FT/S)
NORTHPORT PIER   1940   40     140/  4/  5 1014.9S
KEWAUNEE LAKESHO 1948   44     170/ 16/ 18 1013.1F
SHEBOYGAN LAKESH 2000   42     180/ 16/ 18 1014.0F
MILWAUKEE LAKESH 1950   44                   N/A
KENOSHA   LAKESH 2000   51     180/ 16/ 18 1014.9
$$

TC  - TEMPERATURE IN CELSIUS
VSB - VISIBILITY IN STATUTE MILES
WCI - WIND CHILL INDEX
HX  - HEAT INDEX